Find Starlink 37525

NORAD ID: 69462 Int'l Des: 2026-127 Owner: SPXS Country: US Constellation: starlink operational
LEOCIRCULAR

当前视图

正在加载3D地球...

About Starlink 37525

Starlink 37525 (NORAD 69462) is a starlink constellation satellite launched Jun 8, 2026 by SPXS of US. It operates in LEO, CIRCULAR orbit with a mass of 575.00 kg.

即将过境

Passes for default location (London). Set your location on the main map for personalized predictions.

高度历史

Loading altitude history...

两行轨道根数

1 69462U 26127V 26206.00002315 .00061737 00000-0 11110-2 0 9992
2 69462 53.1597 75.1740 0001013 82.3906 329.3643 15.49265013 6019
Epoch: Jul 25, 2026 • Age: 33 hours

当前状态

高度 418.5 km
远地点 / 近地点 N/A
速度 7.66 km/s
星下点 18.21°N, 155.87°E
发射日期 Jun 8, 2026
运行时间 0.1 years
类型 internet

技术详情

分类 Payload
质量 575.00 kg
干质量 530.00 kg
总质量 575.00 kg
长度 0.30 m
直径 4.10 m
跨度 29.00 m
形状 Box + pan
制造商 SPXS
平台类型 Starlink V2MO
阶段状态 In Orbit
所有者/国家 SPXS/US

Most Searched